Home   Weather   Hayward   Past weeks

Flag for USA Past Weather in Hayward, California, USA — Yesterday and Last 2 Weeks

Now
55 °F

Partly sunny.


Feels Like: 53 °F
Forecast: 49 / 57 °F
Wind: 7 mph from Southwest

Location: Hayward Air Terminal

Current Time: Jan 19, 2017 at 3:40:30 pm

Latest Report: Jan 19, 2017 at 2:54 pm


Visibility: 10 mi

Pressure: 29.86 "Hg

Humidity: 72%

Dew Point: 46 °F

Location of HaywardLocation

Past Weather in Hayward — Graph

°F

Hayward Temperature Yesterday

Maximum temperature yesterday: 54 °F (at 4:54 pm)
Minimum temperature yesterday: 48 °F (at 4:54 am)
Average temperature yesterday: 52 °F

High & Low Weather Summary for the Past Weeks

 TemperatureHumidityPressure
High62 °F (Jan 8, 10:54 am)90% (Jan 8, 5:39 pm)30.27 "Hg (Jan 8, 5:39 pm)
Low35 °F (Jan 6, 5:54 am)35% (Jan 6, 9:54 am)29.73 "Hg (Jan 10, 6:54 pm)
Average51 °F73%30.03 "Hg
* Reported Jan 4 2:54 pm — Jan 19 2:34 pm, Hayward, Weather by CustomWeather, © 2017

Note: Actual official high and low records may vary slightly from our data, if they occured in-between our weather recording intervals... More about our weather records

Advertising

Hayward Weather History for the Previous 24 Hours

Scroll right to see more
 ConditionsComfort  
Time TempWeatherWind HumidityBarometerVisibility
2:34 pm
Thu, Jan 19
54 °FRain. Broken clouds.8 mph72%29.83 "Hg2 mi
1:54 pm56 °FScattered clouds.8 mph67%29.86 "Hg10 mi
12:54 pm55 °FMostly cloudy.10 mph69%29.88 "Hg10 mi
11:54 am57 °FScattered clouds.7 mph64%29.91 "Hg10 mi
10:54 am54 °FPartly sunny.7 mph72%29.92 "Hg10 mi
9:54 am51 °FBroken clouds.9 mph77%29.92 "Hg10 mi
8:54 am52 °FPartly sunny.8 mph77%29.90 "Hg10 mi
7:54 am50 °FBroken clouds.3 mph83%29.89 "Hg6 mi
6:54 am50 °FMostly cloudy.5 mph80%29.88 "Hg10 mi
5:54 am52 °FOvercast.7 mph75%29.85 "Hg10 mi
4:54 am50 °FMostly cloudy.9 mph80%29.84 "Hg10 mi
3:54 am52 °FMostly cloudy.7 mph80%29.85 "Hg10 mi
3:34 am52 °FPartly cloudy.7 mph77%29.83 "Hg10 mi
2:54 am53 °FLight rain. Mostly cloudy.10 mph74%29.86 "Hg5 mi
1:54 am53 °FLight rain. Mostly cloudy.7 mph77%29.85 "Hg10 mi
1:12 am54 °FLight rain. Mostly cloudy.8 mph72%29.82 "Hg10 mi
12:54 am54 °FLight rain. Overcast.8 mph72%29.85 "Hg10 mi
11:54 pm
Wed, Jan 18
53 °FOvercast.7 mph74%29.86 "Hg10 mi
10:54 pm53 °FOvercast.9 mph77%29.85 "Hg10 mi
9:54 pm53 °FMostly cloudy.10 mph80%29.83 "Hg10 mi
8:54 pm53 °FLight rain. Partly cloudy.6 mph83%29.80 "Hg10 mi
8:21 pm53 °FRain. Mostly cloudy.12 mph83%29.76 "Hg5 mi
8:07 pm53 °FRain. Overcast.10 mph83%29.78 "Hg3 mi
7:54 pm53 °FHeavy rain. Mostly cloudy.20 mph80%29.83 "Hg2 mi
6:54 pm53 °FLight rain. Mostly cloudy.21 mph77%29.74 "Hg9 mi
5:54 pm54 °FMostly cloudy.25 mph72%29.74 "Hg10 mi
4:54 pm54 °FMostly cloudy.25 mph72%29.78 "Hg8 mi
3:54 pm53 °FLight rain. Overcast.25 mph72%29.80 "Hg8 mi
Weather by CustomWeather, © 2017

See weather overviewHow to use our weather pages